owner,sensor,date,latitude,longitude,air_temperature,qcFlag 
TCOON,ioos:station:TCOON:518:1,2012-07-09T18:00:00Z,29.5150,-94.5133,25.5,11111222 
TCOON,ioos:station:TCOON:518:1,2012-07-09T19:00:00Z,29.5150,-94.5133,26.1,11111222 
TCOON,ioos:station:TCOON:518:1,2012-07-09T20:00:00Z,29.5150,-94.5133,27.0,11111222 
TCOON,ioos:station:TCOON:518:1,2012-07-09T21:00:00Z,29.5150,-94.5133,27.4,11111222 
TCOON,ioos:station:TCOON:518:1,2012-07-09T22:00:00Z,29.5150,-94.5133,28.0,11111222 
TCOON,ioos:station:TCOON:518:1,2012-07-09T23:00:00Z,29.5150,-94.5133,28.1,11111222 
TCOON,ioos:station:TCOON:518:1,2012-07-10T00:00:00Z,29.5150,-94.5133,27.7,11111222 
TCOON,ioos:station:TCOON:518:1,2012-07-10T01:00:00Z,29.5150,-94.5133,27.8,11111222 
TCOON,ioos:station:TCOON:518:1,2012-07-10T02:00:00Z,29.5150,-94.5133,28.1,11111222 
TCOON,ioos:station:TCOON:518:1,2012-07-10T03:00:00Z,29.5150,-94.5133,28.4,11111222 
TCOON,ioos:station:TCOON:518:1,2012-07-10T04:00:00Z,29.5150,-94.5133,28.7,11111222 
TCOON,ioos:station:TCOON:518:1,2012-07-10T05:00:00Z,29.5150,-94.5133,29.0,11111222 
TCOON,ioos:station:TCOON:518:1,2012-07-10T06:00:00Z,29.5150,-94.5133,29.3,11111222 
TCOON,ioos:station:TCOON:518:1,2012-07-10T07:00:00Z,29.5150,-94.5133,27.9,11111222 
TCOON,ioos:station:TCOON:518:1,2012-07-10T08:00:00Z,29.5150,-94.5133,26.3,11111222 
TCOON,ioos:station:TCOON:518:1,2012-07-10T09:00:00Z,29.5150,-94.5133,26.3,11111222 
TCOON,ioos:station:TCOON:518:1,2012-07-10T10:00:00Z,29.5150,-94.5133,26.9,11111222 
TCOON,ioos:station:TCOON:518:1,2012-07-10T11:00:00Z,29.5150,-94.5133,24.9,11111222 
TCOON,ioos:station:TCOON:518:1,2012-07-10T12:00:00Z,29.5150,-94.5133,25.7,11111222 
TCOON,ioos:station:TCOON:518:1,2012-07-10T13:00:00Z,29.5150,-94.5133,25.3,11111222 
TCOON,ioos:station:TCOON:518:1,2012-07-10T14:00:00Z,29.5150,-94.5133,25.5,11111222 
TCOON,ioos:station:TCOON:518:1,2012-07-10T15:00:00Z,29.5150,-94.5133,25.9,11111222 
TCOON,ioos:station:TCOON:518:1,2012-07-10T16:00:00Z,29.5150,-94.5133,25.8,11111222 
TCOON,ioos:station:TCOON:518:1,2012-07-10T17:00:00Z,29.5150,-94.5133,26.1,11111222 
TCOON,ioos:station:TCOON:518:1,2012-07-10T18:00:00Z,29.5150,-94.5133,25.3,11111222 
TCOON,ioos:station:TCOON:518:1,2012-07-10T19:00:00Z,29.5150,-94.5133,25.7,11111222 
TCOON,ioos:station:TCOON:518:1,2012-07-10T20:00:00Z,29.5150,-94.5133,25.9,11111222 
TCOON,ioos:station:TCOON:518:1,2012-07-10T21:00:00Z,29.5150,-94.5133,25.7,11111222 
TCOON,ioos:station:TCOON:518:1,2012-07-10T22:00:00Z,29.5150,-94.5133,27.8,11111222 
TCOON,ioos:station:TCOON:518:1,2012-07-10T23:00:00Z,29.5150,-94.5133,28.2,11111222 
TCOON,ioos:station:TCOON:518:1,2012-07-11T00:00:00Z,29.5150,-94.5133,27.9,11111222 
TCOON,ioos:station:TCOON:518:1,2012-07-11T01:00:00Z,29.5150,-94.5133,27.8,11111222 
TCOON,ioos:station:TCOON:518:1,2012-07-11T02:00:00Z,29.5150,-94.5133,27.4,11111222 
TCOON,ioos:station:TCOON:518:1,2012-07-11T03:00:00Z,29.5150,-94.5133,27.9,11111222 
TCOON,ioos:station:TCOON:518:1,2012-07-11T04:00:00Z,29.5150,-94.5133,28.1,11111222 
TCOON,ioos:station:TCOON:518:1,2012-07-11T05:00:00Z,29.5150,-94.5133,28.5,11111222 
TCOON,ioos:station:TCOON:518:1,2012-07-11T06:00:00Z,29.5150,-94.5133,25.5,11111222 
TCOON,ioos:station:TCOON:518:1,2012-07-11T07:00:00Z,29.5150,-94.5133,25.1,11111222 
TCOON,ioos:station:TCOON:518:1,2012-07-11T08:00:00Z,29.5150,-94.5133,25.1,11111222 
TCOON,ioos:station:TCOON:518:1,2012-07-11T09:00:00Z,29.5150,-94.5133,25.1,11111222 
TCOON,ioos:station:TCOON:518:1,2012-07-11T10:00:00Z,29.5150,-94.5133,25.4,11111222 
TCOON,ioos:station:TCOON:518:1,2012-07-11T11:00:00Z,29.5150,-94.5133,25.5,11111222 
TCOON,ioos:station:TCOON:518:1,2012-07-11T12:00:00Z,29.5150,-94.5133,25.9,11111222 
TCOON,ioos:station:TCOON:518:1,2012-07-11T13:00:00Z,29.5150,-94.5133,26.1,11111222 
TCOON,ioos:station:TCOON:518:1,2012-07-11T14:00:00Z,29.5150,-94.5133,26.8,11111222 
TCOON,ioos:station:TCOON:518:1,2012-07-11T15:00:00Z,29.5150,-94.5133,25.4,11111222 
TCOON,ioos:station:TCOON:518:1,2012-07-11T16:00:00Z,29.5150,-94.5133,25.7,11111222 
TCOON,ioos:station:TCOON:518:1,2012-07-11T17:00:00Z,29.5150,-94.5133,27.2,11111222 
TCOON,ioos:station:TCOON:518:1,2012-07-11T18:00:00Z,29.5150,-94.5133,27.8,11111222 
TCOON,ioos:station:TCOON:518:1,2012-07-11T19:00:00Z,29.5150,-94.5133,28.7,11111222 
TCOON,ioos:station:TCOON:518:1,2012-07-11T20:00:00Z,29.5150,-94.5133,29.0,11111222 
TCOON,ioos:station:TCOON:518:1,2012-07-11T21:00:00Z,29.5150,-94.5133,29.0,11111222 
TCOON,ioos:station:TCOON:518:1,2012-07-11T22:00:00Z,29.5150,-94.5133,28.5,11111222 
TCOON,ioos:station:TCOON:518:1,2012-07-11T23:00:00Z,29.5150,-94.5133,28.3,11111222 
TCOON,ioos:station:TCOON:518:1,2012-07-12T00:00:00Z,29.5150,-94.5133,28.2,11111222 
TCOON,ioos:station:TCOON:518:1,2012-07-12T01:00:00Z,29.5150,-94.5133,27.8,11111222 
TCOON,ioos:station:TCOON:518:1,2012-07-12T02:00:00Z,29.5150,-94.5133,28.2,11111222 
TCOON,ioos:station:TCOON:518:1,2012-07-12T03:00:00Z,29.5150,-94.5133,28.3,11111222 
TCOON,ioos:station:TCOON:518:1,2012-07-12T04:00:00Z,29.5150,-94.5133,28.6,11111222 
TCOON,ioos:station:TCOON:518:1,2012-07-12T05:00:00Z,29.5150,-94.5133,28.6,11111222 
TCOON,ioos:station:TCOON:518:1,2012-07-12T06:00:00Z,29.5150,-94.5133,29.0,11111222 
TCOON,ioos:station:TCOON:518:1,2012-07-12T07:00:00Z,29.5150,-94.5133,29.3,11111222 
TCOON,ioos:station:TCOON:518:1,2012-07-12T08:00:00Z,29.5150,-94.5133,29.6,11111222 
TCOON,ioos:station:TCOON:518:1,2012-07-12T09:00:00Z,29.5150,-94.5133,29.7,11111222 
TCOON,ioos:station:TCOON:518:1,2012-07-12T10:00:00Z,29.5150,-94.5133,29.8,11111222 
TCOON,ioos:station:TCOON:518:1,2012-07-12T11:00:00Z,29.5150,-94.5133,29.9,11111222 
TCOON,ioos:station:TCOON:518:1,2012-07-12T12:00:00Z,29.5150,-94.5133,30.1,11111222 
TCOON,ioos:station:TCOON:518:1,2012-07-12T13:00:00Z,29.5150,-94.5133,29.5,11111222 
TCOON,ioos:station:TCOON:518:1,2012-07-12T14:00:00Z,29.5150,-94.5133,28.9,11111222 
TCOON,ioos:station:TCOON:518:1,2012-07-12T15:00:00Z,29.5150,-94.5133,26.3,11111222 
TCOON,ioos:station:TCOON:518:1,2012-07-12T16:00:00Z,29.5150,-94.5133,26.8,11111222 
TCOON,ioos:station:TCOON:518:1,2012-07-12T17:00:00Z,29.5150,-94.5133,25.7,11111222 
TCOON,ioos:station:TCOON:518:1,2012-07-12T18:00:00Z,29.5150,-94.5133,24.6,11111222 
TCOON,ioos:station:TCOON:518:1,2012-07-12T19:00:00Z,29.5150,-94.5133,25.4,11111222 
TCOON,ioos:station:TCOON:518:1,2012-07-12T20:00:00Z,29.5150,-94.5133,25.2,11111222 
TCOON,ioos:station:TCOON:518:1,2012-07-12T21:00:00Z,29.5150,-94.5133,26.3,11111222 
TCOON,ioos:station:TCOON:518:1,2012-07-12T22:00:00Z,29.5150,-94.5133,26.9,11111222 
TCOON,ioos:station:TCOON:518:1,2012-07-12T23:00:00Z,29.5150,-94.5133,28.7,11111222 
TCOON,ioos:station:TCOON:518:1,2012-07-13T00:00:00Z,29.5150,-94.5133,28.5,11111222 
TCOON,ioos:station:TCOON:518:1,2012-07-13T01:00:00Z,29.5150,-94.5133,28.1,11111222 
TCOON,ioos:station:TCOON:518:1,2012-07-13T02:00:00Z,29.5150,-94.5133,28.0,11111222 
TCOON,ioos:station:TCOON:518:1,2012-07-13T03:00:00Z,29.5150,-94.5133,28.5,11111222 
TCOON,ioos:station:TCOON:518:1,2012-07-13T04:00:00Z,29.5150,-94.5133,28.9,11111222 
TCOON,ioos:station:TCOON:518:1,2012-07-13T05:00:00Z,29.5150,-94.5133,29.0,11111222 
TCOON,ioos:station:TCOON:518:1,2012-07-13T06:00:00Z,29.5150,-94.5133,29.1,11111222 
TCOON,ioos:station:TCOON:518:1,2012-07-13T07:00:00Z,29.5150,-94.5133,29.2,11111222 
TCOON,ioos:station:TCOON:518:1,2012-07-13T08:00:00Z,29.5150,-94.5133,29.3,11111222 
TCOON,ioos:station:TCOON:518:1,2012-07-13T09:00:00Z,29.5150,-94.5133,29.3,11111222 
TCOON,ioos:station:TCOON:518:1,2012-07-13T10:00:00Z,29.5150,-94.5133,29.3,11111222 
TCOON,ioos:station:TCOON:518:1,2012-07-13T11:00:00Z,29.5150,-94.5133,25.4,11111222 
TCOON,ioos:station:TCOON:518:1,2012-07-13T12:00:00Z,29.5150,-94.5133,27.9,11111222 
TCOON,ioos:station:TCOON:518:1,2012-07-13T13:00:00Z,29.5150,-94.5133,27.9,11111222 
TCOON,ioos:station:TCOON:518:1,2012-07-13T14:00:00Z,29.5150,-94.5133,28.6,11111222 
TCOON,ioos:station:TCOON:518:1,2012-07-13T15:00:00Z,29.5150,-94.5133,30.0,11111222 
TCOON,ioos:station:TCOON:518:1,2012-07-13T16:00:00Z,29.5150,-94.5133,29.0,11111222 
TCOON,ioos:station:TCOON:518:1,2012-07-13T17:00:00Z,29.5150,-94.5133,25.5,11111222 
TCOON,ioos:station:TCOON:518:1,2012-07-13T18:00:00Z,29.5150,-94.5133,24.6,11111222 
TCOON,ioos:station:TCOON:518:1,2012-07-13T19:00:00Z,29.5150,-94.5133,24.9,11111222 
TCOON,ioos:station:TCOON:518:1,2012-07-13T20:00:00Z,29.5150,-94.5133,27.8,11111222 
TCOON,ioos:station:TCOON:518:1,2012-07-13T21:00:00Z,29.5150,-94.5133,28.2,11111222 
TCOON,ioos:station:TCOON:518:1,2012-07-13T22:00:00Z,29.5150,-94.5133,28.5,11111222 
TCOON,ioos:station:TCOON:518:1,2012-07-13T23:00:00Z,29.5150,-94.5133,28.2,11111222 
TCOON,ioos:station:TCOON:518:1,2012-07-14T00:00:00Z,29.5150,-94.5133,28.2,11111222 
TCOON,ioos:station:TCOON:518:1,2012-07-14T01:00:00Z,29.5150,-94.5133,28.1,11111222 
TCOON,ioos:station:TCOON:518:1,2012-07-14T02:00:00Z,29.5150,-94.5133,28.0,11111222 
TCOON,ioos:station:TCOON:518:1,2012-07-14T03:00:00Z,29.5150,-94.5133,28.1,11111222 
TCOON,ioos:station:TCOON:518:1,2012-07-14T04:00:00Z,29.5150,-94.5133,27.4,11111222 
TCOON,ioos:station:TCOON:518:1,2012-07-14T05:00:00Z,29.5150,-94.5133,28.0,11111222 
TCOON,ioos:station:TCOON:518:1,2012-07-14T06:00:00Z,29.5150,-94.5133,28.2,11111222 
TCOON,ioos:station:TCOON:518:1,2012-07-14T07:00:00Z,29.5150,-94.5133,28.1,11111222 
TCOON,ioos:station:TCOON:518:1,2012-07-14T08:00:00Z,29.5150,-94.5133,28.2,11111222 
TCOON,ioos:station:TCOON:518:1,2012-07-14T09:00:00Z,29.5150,-94.5133,28.3,11111222 
TCOON,ioos:station:TCOON:518:1,2012-07-14T10:00:00Z,29.5150,-94.5133,27.5,11111222 
TCOON,ioos:station:TCOON:518:1,2012-07-14T11:00:00Z,29.5150,-94.5133,26.7,11111222 
TCOON,ioos:station:TCOON:518:1,2012-07-14T12:00:00Z,29.5150,-94.5133,26.3,11111222 
TCOON,ioos:station:TCOON:518:1,2012-07-14T13:00:00Z,29.5150,-94.5133,27.0,11111222 
TCOON,ioos:station:TCOON:518:1,2012-07-14T14:00:00Z,29.5150,-94.5133,27.2,11111222 
TCOON,ioos:station:TCOON:518:1,2012-07-14T15:00:00Z,29.5150,-94.5133,27.9,11111222 
TCOON,ioos:station:TCOON:518:1,2012-07-14T16:00:00Z,29.5150,-94.5133,29.8,11111222 
TCOON,ioos:station:TCOON:518:1,2012-07-14T17:00:00Z,29.5150,-94.5133,30.1,11111222 
TCOON,ioos:station:TCOON:518:1,2012-07-14T18:00:00Z,29.5150,-94.5133,30.1,11111222 
TCOON,ioos:station:TCOON:518:1,2012-07-14T19:00:00Z,29.5150,-94.5133,30.7,11111222 
TCOON,ioos:station:TCOON:518:1,2012-07-14T20:00:00Z,29.5150,-94.5133,30.9,11111222 
TCOON,ioos:station:TCOON:518:1,2012-07-14T21:00:00Z,29.5150,-94.5133,30.7,11111222 
TCOON,ioos:station:TCOON:518:1,2012-07-14T22:00:00Z,29.5150,-94.5133,30.7,11111222 
TCOON,ioos:station:TCOON:518:1,2012-07-14T23:00:00Z,29.5150,-94.5133,30.8,11111222 
TCOON,ioos:station:TCOON:518:1,2012-07-15T00:00:00Z,29.5150,-94.5133,30.9,11111222 
TCOON,ioos:station:TCOON:518:1,2012-07-15T01:00:00Z,29.5150,-94.5133,30.0,11111222 
TCOON,ioos:station:TCOON:518:1,2012-07-15T02:00:00Z,29.5150,-94.5133,29.7,11111222 
TCOON,ioos:station:TCOON:518:1,2012-07-15T03:00:00Z,29.5150,-94.5133,29.6,11111222 
TCOON,ioos:station:TCOON:518:1,2012-07-15T04:00:00Z,29.5150,-94.5133,29.5,11111222 
TCOON,ioos:station:TCOON:518:1,2012-07-15T05:00:00Z,29.5150,-94.5133,29.3,11111222 
TCOON,ioos:station:TCOON:518:1,2012-07-15T06:00:00Z,29.5150,-94.5133,29.3,11111222 
TCOON,ioos:station:TCOON:518:1,2012-07-15T07:00:00Z,29.5150,-94.5133,28.9,11111222 
TCOON,ioos:station:TCOON:518:1,2012-07-15T08:00:00Z,29.5150,-94.5133,28.6,11111222 
TCOON,ioos:station:TCOON:518:1,2012-07-15T09:00:00Z,29.5150,-94.5133,28.5,11111222 
TCOON,ioos:station:TCOON:518:1,2012-07-15T10:00:00Z,29.5150,-94.5133,28.2,11111222 
TCOON,ioos:station:TCOON:518:1,2012-07-15T11:00:00Z,29.5150,-94.5133,28.2,11111222 
TCOON,ioos:station:TCOON:518:1,2012-07-15T12:00:00Z,29.5150,-94.5133,28.8,11111222 
TCOON,ioos:station:TCOON:518:1,2012-07-15T13:00:00Z,29.5150,-94.5133,26.3,11111222 
TCOON,ioos:station:TCOON:518:1,2012-07-15T14:00:00Z,29.5150,-94.5133,25.9,11111222 
TCOON,ioos:station:TCOON:518:1,2012-07-15T15:00:00Z,29.5150,-94.5133,26.6,11111222 
TCOON,ioos:station:TCOON:518:1,2012-07-15T16:00:00Z,29.5150,-94.5133,26.4,11111222 
TCOON,ioos:station:TCOON:518:1,2012-07-15T17:00:00Z,29.5150,-94.5133,28.1,11111222 
TCOON,ioos:station:TCOON:518:1,2012-07-15T18:00:00Z,29.5150,-94.5133,28.4,11111222 
TCOON,ioos:station:TCOON:518:1,2012-07-15T19:00:00Z,29.5150,-94.5133,28.3,11111222 
TCOON,ioos:station:TCOON:518:1,2012-07-15T20:00:00Z,29.5150,-94.5133,29.6,11111222 
TCOON,ioos:station:TCOON:518:1,2012-07-15T21:00:00Z,29.5150,-94.5133,29.8,11111222 
TCOON,ioos:station:TCOON:518:1,2012-07-15T22:00:00Z,29.5150,-94.5133,30.1,11111222 
TCOON,ioos:station:TCOON:518:1,2012-07-15T23:00:00Z,29.5150,-94.5133,30.2,11111222 
TCOON,ioos:station:TCOON:518:1,2012-07-16T00:00:00Z,29.5150,-94.5133,30.7,11111222 
TCOON,ioos:station:TCOON:518:1,2012-07-16T01:00:00Z,29.5150,-94.5133,29.9,11111222 
TCOON,ioos:station:TCOON:518:1,2012-07-16T02:00:00Z,29.5150,-94.5133,29.3,11111222 
TCOON,ioos:station:TCOON:518:1,2012-07-16T03:00:00Z,29.5150,-94.5133,29.5,11111222 
TCOON,ioos:station:TCOON:518:1,2012-07-16T04:00:00Z,29.5150,-94.5133,29.5,11111222 
TCOON,ioos:station:TCOON:518:1,2012-07-16T05:00:00Z,29.5150,-94.5133,29.5,11111222 
TCOON,ioos:station:TCOON:518:1,2012-07-16T06:00:00Z,29.5150,-94.5133,29.3,11111222 
TCOON,ioos:station:TCOON:518:1,2012-07-16T07:00:00Z,29.5150,-94.5133,29.4,11111222 
TCOON,ioos:station:TCOON:518:1,2012-07-16T08:00:00Z,29.5150,-94.5133,29.3,11111222 
TCOON,ioos:station:TCOON:518:1,2012-07-16T09:00:00Z,29.5150,-94.5133,29.1,11111222 
TCOON,ioos:station:TCOON:518:1,2012-07-16T10:00:00Z,29.5150,-94.5133,29.1,11111222 
TCOON,ioos:station:TCOON:518:1,2012-07-16T11:00:00Z,29.5150,-94.5133,29.2,11111222 
TCOON,ioos:station:TCOON:518:1,2012-07-16T12:00:00Z,29.5150,-94.5133,29.3,11111222 
TCOON,ioos:station:TCOON:518:1,2012-07-16T13:00:00Z,29.5150,-94.5133,30.3,11111222 
TCOON,ioos:station:TCOON:518:1,2012-07-16T14:00:00Z,29.5150,-94.5133,31.3,11111222 
TCOON,ioos:station:TCOON:518:1,2012-07-16T15:00:00Z,29.5150,-94.5133,31.1,11111222 
TCOON,ioos:station:TCOON:518:1,2012-07-16T16:00:00Z,29.5150,-94.5133,30.9,11111222 
TCOON,ioos:station:TCOON:518:1,2012-07-16T17:00:00Z,29.5150,-94.5133,30.8,11111222 
TCOON,ioos:station:TCOON:518:1,2012-07-16T18:00:00Z,29.5150,-94.5133,30.8,11111222 
TCOON,ioos:station:TCOON:518:1,2012-07-16T19:00:00Z,29.5150,-94.5133,31.1,11111222 
TCOON,ioos:station:TCOON:518:1,2012-07-16T20:00:00Z,29.5150,-94.5133,31.4,11111222 
TCOON,ioos:station:TCOON:518:1,2012-07-16T21:00:00Z,29.5150,-94.5133,31.4,11111222 
TCOON,ioos:station:TCOON:518:1,2012-07-16T22:00:00Z,29.5150,-94.5133,31.6,11111222 
TCOON,ioos:station:TCOON:518:1,2012-07-16T23:00:00Z,29.5150,-94.5133,31.6,11111222 
TCOON,ioos:station:TCOON:518:1,2012-07-17T00:00:00Z,29.5150,-94.5133,31.7,11111222 
TCOON,ioos:station:TCOON:518:1,2012-07-17T01:00:00Z,29.5150,-94.5133,30.7,11111222 
TCOON,ioos:station:TCOON:518:1,2012-07-17T02:00:00Z,29.5150,-94.5133,30.4,11111222 
TCOON,ioos:station:TCOON:518:1,2012-07-17T03:00:00Z,29.5150,-94.5133,30.3,11111222 
TCOON,ioos:station:TCOON:518:1,2012-07-17T04:00:00Z,29.5150,-94.5133,30.1,11111222 
TCOON,ioos:station:TCOON:518:1,2012-07-17T05:00:00Z,29.5150,-94.5133,30.1,11111222 
TCOON,ioos:station:TCOON:518:1,2012-07-17T06:00:00Z,29.5150,-94.5133,29.8,11111222 
TCOON,ioos:station:TCOON:518:1,2012-07-17T07:00:00Z,29.5150,-94.5133,29.8,11111222 
TCOON,ioos:station:TCOON:518:1,2012-07-17T08:00:00Z,29.5150,-94.5133,29.7,11111222 
TCOON,ioos:station:TCOON:518:1,2012-07-17T09:00:00Z,29.5150,-94.5133,29.7,11111222 
TCOON,ioos:station:TCOON:518:1,2012-07-17T10:00:00Z,29.5150,-94.5133,29.5,11111222 
TCOON,ioos:station:TCOON:518:1,2012-07-17T11:00:00Z,29.5150,-94.5133,29.3,11111222 
TCOON,ioos:station:TCOON:518:1,2012-07-17T12:00:00Z,29.5150,-94.5133,29.6,11111222 
TCOON,ioos:station:TCOON:518:1,2012-07-17T13:00:00Z,29.5150,-94.5133,30.1,11111222 
TCOON,ioos:station:TCOON:518:1,2012-07-17T14:00:00Z,29.5150,-94.5133,31.7,11111222 
TCOON,ioos:station:TCOON:518:1,2012-07-17T15:00:00Z,29.5150,-94.5133,31.2,11111222 
TCOON,ioos:station:TCOON:518:1,2012-07-17T16:00:00Z,29.5150,-94.5133,31.3,11111222 
TCOON,ioos:station:TCOON:518:1,2012-07-17T17:00:00Z,29.5150,-94.5133,31.5,11111222 
TCOON,ioos:station:TCOON:518:1,2012-07-17T18:00:00Z,29.5150,-94.5133,31.2,11111222 
TCOON,ioos:station:TCOON:518:1,2012-07-17T19:00:00Z,29.5150,-94.5133,32.1,11111222 
TCOON,ioos:station:TCOON:518:1,2012-07-17T20:00:00Z,29.5150,-94.5133,31.9,11111222 
TCOON,ioos:station:TCOON:518:1,2012-07-17T21:00:00Z,29.5150,-94.5133,32.6,11111222 
TCOON,ioos:station:TCOON:518:1,2012-07-17T22:00:00Z,29.5150,-94.5133,32.2,11111222 
TCOON,ioos:station:TCOON:518:1,2012-07-17T23:00:00Z,29.5150,-94.5133,32.3,11111222 
TCOON,ioos:station:TCOON:518:1,2012-07-18T00:00:00Z,29.5150,-94.5133,32.1,11111222 
TCOON,ioos:station:TCOON:518:1,2012-07-18T01:00:00Z,29.5150,-94.5133,31.0,11111222 
TCOON,ioos:station:TCOON:518:1,2012-07-18T02:00:00Z,29.5150,-94.5133,30.7,11111222 
TCOON,ioos:station:TCOON:518:1,2012-07-18T03:00:00Z,29.5150,-94.5133,30.5,11111222 
TCOON,ioos:station:TCOON:518:1,2012-07-18T04:00:00Z,29.5150,-94.5133,30.5,11111222 
TCOON,ioos:station:TCOON:518:1,2012-07-18T05:00:00Z,29.5150,-94.5133,30.5,11111222 
TCOON,ioos:station:TCOON:518:1,2012-07-18T06:00:00Z,29.5150,-94.5133,30.5,11111222 
TCOON,ioos:station:TCOON:518:1,2012-07-18T07:00:00Z,29.5150,-94.5133,30.5,11111222 
TCOON,ioos:station:TCOON:518:1,2012-07-18T08:00:00Z,29.5150,-94.5133,30.2,11111222 
TCOON,ioos:station:TCOON:518:1,2012-07-18T09:00:00Z,29.5150,-94.5133,30.1,11111222 
TCOON,ioos:station:TCOON:518:1,2012-07-18T10:00:00Z,29.5150,-94.5133,29.9,11111222 
TCOON,ioos:station:TCOON:518:1,2012-07-18T11:00:00Z,29.5150,-94.5133,29.7,11111222 
TCOON,ioos:station:TCOON:518:1,2012-07-18T12:00:00Z,29.5150,-94.5133,30.0,11111222 
TCOON,ioos:station:TCOON:518:1,2012-07-18T13:00:00Z,29.5150,-94.5133,31.6,11111222 
TCOON,ioos:station:TCOON:518:1,2012-07-18T14:00:00Z,29.5150,-94.5133,32.3,11111222 
TCOON,ioos:station:TCOON:518:1,2012-07-18T15:00:00Z,29.5150,-94.5133,32.1,11111222 
TCOON,ioos:station:TCOON:518:1,2012-07-18T16:00:00Z,29.5150,-94.5133,32.0,11111222 
TCOON,ioos:station:TCOON:518:1,2012-07-18T17:00:00Z,29.5150,-94.5133,32.1,11111222 
TCOON,ioos:station:TCOON:518:1,2012-07-18T18:00:00Z,29.5150,-94.5133,31.9,11111222 
TCOON,ioos:station:TCOON:518:1,2012-07-18T19:00:00Z,29.5150,-94.5133,32.1,11111222 
TCOON,ioos:station:TCOON:518:1,2012-07-18T20:00:00Z,29.5150,-94.5133,31.9,11111222 
TCOON,ioos:station:TCOON:518:1,2012-07-18T21:00:00Z,29.5150,-94.5133,32.4,11111222 
TCOON,ioos:station:TCOON:518:1,2012-07-18T22:00:00Z,29.5150,-94.5133,32.4,11111222 
TCOON,ioos:station:TCOON:518:1,2012-07-18T23:00:00Z,29.5150,-94.5133,32.4,11111222 
TCOON,ioos:station:TCOON:518:1,2012-07-19T00:00:00Z,29.5150,-94.5133,32.1,11111222 
TCOON,ioos:station:TCOON:518:1,2012-07-19T01:00:00Z,29.5150,-94.5133,31.2,11111222 
TCOON,ioos:station:TCOON:518:1,2012-07-19T02:00:00Z,29.5150,-94.5133,31.1,11111222 
TCOON,ioos:station:TCOON:518:1,2012-07-19T03:00:00Z,29.5150,-94.5133,30.9,11111222 
TCOON,ioos:station:TCOON:518:1,2012-07-19T04:00:00Z,29.5150,-94.5133,30.7,11111222 
TCOON,ioos:station:TCOON:518:1,2012-07-19T05:00:00Z,29.5150,-94.5133,30.6,11111222 
TCOON,ioos:station:TCOON:518:1,2012-07-19T06:00:00Z,29.5150,-94.5133,30.4,11111222 
TCOON,ioos:station:TCOON:518:1,2012-07-19T07:00:00Z,29.5150,-94.5133,30.2,11111222 
TCOON,ioos:station:TCOON:518:1,2012-07-19T08:00:00Z,29.5150,-94.5133,30.0,11111222 
TCOON,ioos:station:TCOON:518:1,2012-07-19T09:00:00Z,29.5150,-94.5133,29.6,11111222 
TCOON,ioos:station:TCOON:518:1,2012-07-19T10:00:00Z,29.5150,-94.5133,29.2,11111222 
TCOON,ioos:station:TCOON:518:1,2012-07-19T11:00:00Z,29.5150,-94.5133,29.2,11111222 
TCOON,ioos:station:TCOON:518:1,2012-07-19T12:00:00Z,29.5150,-94.5133,29.1,11111222 
TCOON,ioos:station:TCOON:518:1,2012-07-19T13:00:00Z,29.5150,-94.5133,31.2,11111222 
TCOON,ioos:station:TCOON:518:1,2012-07-19T14:00:00Z,29.5150,-94.5133,31.5,11111222 
TCOON,ioos:station:TCOON:518:1,2012-07-19T15:00:00Z,29.5150,-94.5133,32.1,11111222 
TCOON,ioos:station:TCOON:518:1,2012-07-19T16:00:00Z,29.5150,-94.5133,32.4,11111222 
TCOON,ioos:station:TCOON:518:1,2012-07-19T17:00:00Z,29.5150,-94.5133,32.5,11111222 
TCOON,ioos:station:TCOON:518:1,2012-07-19T18:00:00Z,29.5150,-94.5133,32.7,11111222 
TCOON,ioos:station:TCOON:518:1,2012-07-19T19:00:00Z,29.5150,-94.5133,32.6,11111222 
TCOON,ioos:station:TCOON:518:1,2012-07-19T20:00:00Z,29.5150,-94.5133,32.7,11111222 
TCOON,ioos:station:TCOON:518:1,2012-07-19T21:00:00Z,29.5150,-94.5133,32.9,11111222 
TCOON,ioos:station:TCOON:518:1,2012-07-19T22:00:00Z,29.5150,-94.5133,32.8,11111222 
TCOON,ioos:station:TCOON:518:1,2012-07-19T23:00:00Z,29.5150,-94.5133,33.1,11111222 
TCOON,ioos:station:TCOON:518:1,2012-07-20T00:00:00Z,29.5150,-94.5133,32.6,11111222 
TCOON,ioos:station:TCOON:518:1,2012-07-20T01:00:00Z,29.5150,-94.5133,31.4,11111222 
TCOON,ioos:station:TCOON:518:1,2012-07-20T02:00:00Z,29.5150,-94.5133,31.0,11111222 
TCOON,ioos:station:TCOON:518:1,2012-07-20T03:00:00Z,29.5150,-94.5133,31.0,11111222 
TCOON,ioos:station:TCOON:518:1,2012-07-20T04:00:00Z,29.5150,-94.5133,30.8,11111222 
TCOON,ioos:station:TCOON:518:1,2012-07-20T05:00:00Z,29.5150,-94.5133,30.7,11111222 
TCOON,ioos:station:TCOON:518:1,2012-07-20T06:00:00Z,29.5150,-94.5133,30.5,11111222 
TCOON,ioos:station:TCOON:518:1,2012-07-20T07:00:00Z,29.5150,-94.5133,30.0,11111222 
TCOON,ioos:station:TCOON:518:1,2012-07-20T08:00:00Z,29.5150,-94.5133,29.5,11111222 
TCOON,ioos:station:TCOON:518:1,2012-07-20T09:00:00Z,29.5150,-94.5133,29.6,11111222 
TCOON,ioos:station:TCOON:518:1,2012-07-20T10:00:00Z,29.5150,-94.5133,29.4,11111222 
TCOON,ioos:station:TCOON:518:1,2012-07-20T11:00:00Z,29.5150,-94.5133,29.1,11111222 
TCOON,ioos:station:TCOON:518:1,2012-07-20T12:00:00Z,29.5150,-94.5133,28.9,11111222 
TCOON,ioos:station:TCOON:518:1,2012-07-20T13:00:00Z,29.5150,-94.5133,30.7,11111222 
TCOON,ioos:station:TCOON:518:1,2012-07-20T14:00:00Z,29.5150,-94.5133,30.6,11111222 
TCOON,ioos:station:TCOON:518:1,2012-07-20T15:00:00Z,29.5150,-94.5133,30.8,11111222 
TCOON,ioos:station:TCOON:518:1,2012-07-20T16:00:00Z,29.5150,-94.5133,31.4,11111222 
TCOON,ioos:station:TCOON:518:1,2012-07-20T17:00:00Z,29.5150,-94.5133,32.0,11111222 
TCOON,ioos:station:TCOON:518:1,2012-07-20T18:00:00Z,29.5150,-94.5133,32.3,11111222 
TCOON,ioos:station:TCOON:518:1,2012-07-20T19:00:00Z,29.5150,-94.5133,33.2,11111222 
TCOON,ioos:station:TCOON:518:1,2012-07-20T20:00:00Z,29.5150,-94.5133,33.9,11111222 
TCOON,ioos:station:TCOON:518:1,2012-07-20T21:00:00Z,29.5150,-94.5133,33.0,11111222 
TCOON,ioos:station:TCOON:518:1,2012-07-20T22:00:00Z,29.5150,-94.5133,33.1,11111222 
TCOON,ioos:station:TCOON:518:1,2012-07-20T23:00:00Z,29.5150,-94.5133,32.6,11111222 
TCOON,ioos:station:TCOON:518:1,2012-07-21T00:00:00Z,29.5150,-94.5133,32.3,11111222 
TCOON,ioos:station:TCOON:518:1,2012-07-21T01:00:00Z,29.5150,-94.5133,31.4,11111222 
TCOON,ioos:station:TCOON:518:1,2012-07-21T02:00:00Z,29.5150,-94.5133,31.1,11111222 
TCOON,ioos:station:TCOON:518:1,2012-07-21T03:00:00Z,29.5150,-94.5133,30.9,11111222 
TCOON,ioos:station:TCOON:518:1,2012-07-21T04:00:00Z,29.5150,-94.5133,30.6,11111222 
TCOON,ioos:station:TCOON:518:1,2012-07-21T05:00:00Z,29.5150,-94.5133,30.3,11111222 
TCOON,ioos:station:TCOON:518:1,2012-07-21T06:00:00Z,29.5150,-94.5133,29.5,11111222 
TCOON,ioos:station:TCOON:518:1,2012-07-21T07:00:00Z,29.5150,-94.5133,26.5,11111222 
TCOON,ioos:station:TCOON:518:1,2012-07-21T08:00:00Z,29.5150,-94.5133,26.5,11111222 
TCOON,ioos:station:TCOON:518:1,2012-07-21T09:00:00Z,29.5150,-94.5133,27.0,11111222 
TCOON,ioos:station:TCOON:518:1,2012-07-21T10:00:00Z,29.5150,-94.5133,27.8,11111222 
TCOON,ioos:station:TCOON:518:1,2012-07-21T11:00:00Z,29.5150,-94.5133,28.8,11111222 
TCOON,ioos:station:TCOON:518:1,2012-07-21T12:00:00Z,29.5150,-94.5133,29.2,11111222 
TCOON,ioos:station:TCOON:518:1,2012-07-21T13:00:00Z,29.5150,-94.5133,29.3,11111222 